User: anonymous   Login
Location: Unspecified
(0.0000°N, 0.0000°E)
Time: 02:03:15
(UTC+02:00)
Language:

Timation 2 Rocket - Orbit

View from above orbital plane
View from above orbital plane
View from above satellite
View from above satellite

Ground track
Ground track

The orbit data is extracted from the following two-line orbital elements,

1 04159U 69082AB  16149.54030264 -.00000002  00000-0  50120-4 0  9994
2 04159  69.9630 228.3230 0116792 209.5629 149.8829 13.72346292335307
Epoch (UTC): 28 May 2016 12:58:02
Eccentricity: 0.0116792
inclination: 69.9630°
perigee height: 905 km
apogee height: 1077 km
right ascension of ascending node: 228.3230°
argument of perigee: 209.5629°
revolutions per day: 13.72346292
mean anomaly at epoch: 149.8829°
orbit number at epoch: 33530

The dashed part of the orbit path shows where the satellite is in the earth's shadow,  

DLR